Voltar ao catálogo

COSMOS 2251 DEB

AtivoLEO
NORAD 34878·DEBRIS·🇷🇺 Russia

Lançado Jun 16, 1993 de Plesetsk Cosmodrome

Loading…

Próximas Passagens (próximas 24 horas)

TLE

ObsoletoSource: Space-Track

Época: Sep 7, 2026, 14:33 UTC

1 34878U 93036ACR 26250.60626251  .00000597  00000-0  60162-3 0  9993
2 34878  73.9677 340.6298 0435465 272.6084 149.4472 13.44536217848860

Acompanhe COSMOS 2251 DEB em tempo real com AllMySat

Download on the App Store